Location: Montreal
(45.5000°N, 73.5833°W)
Time: 23:33:41
(UTC-05:00)

Envisat - Pass Details

Date: 08 October 2017
Orbit: 764 x 766 km, 98.2° (Epoch: 13 December)

Event Time Altitude Azimuth Distance (km) Brightness Sun altitude
Exits shadow 22:21:43 11° 267° (W) 2,258 5.8 -40.5°
Maximum altitude 22:22:18 11° 274° (W) 2,246 5.9 -40.5°
Drops below altitude 10° 22:23:35 10° 289° (WNW) 2,309 6.0 -40.7°
Sets 22:28:01 0° 325° (NW) 3,244 7.1 -41.3°
